Location: Roanoke
(37.2710°N, 79.9420°W)
Time: 02:49:46
(UTC-05:00)

Courier 1B Rocket - Pass Details

Date: 25 November 2019
Orbit: 920 x 1202 km, 28.2° (Epoch: 05 December)

Event Time Altitude Azimuth Distance (km) Brightness Sun altitude
Rises 18:04:30 0° 262° (W) 3,848 10.1 -12.0°
Reaches altitude 10° 18:08:09 10° 244° (WSW) 2,946 9.0 -12.7°
Maximum altitude 18:12:46 18° 204° (SSW) 2,458 7.6 -13.6°
Drops below altitude 10° 18:17:33 10° 165° (SSE) 3,058 7.6 -14.5°
Sets 18:21:27 0° 147° (SSE) 4,053 8.0 -15.2°
